Temperature
14 14 14 14 14 14 14 15 15 15 15 15 15 15 15 15 15 15 15 15 15 15 15 15 15 15 15 14 15 14 14 14 14 14 14 14 14 15 15 15 14 14 15
13 13 14 14 14 14 14 14 14 14 15 15 15 15 15 15 15 15 15 15 15 15 15 15 14 14 14 14 14 14 14 14 14 14 14 14 14 14 14 14 14 14 14
13 13 13 14 14 14 14 14 14 14 14 14 14 14 14 14 15 15 15 15 15 15 14 14 14 14 14 14 14 14 14 14 14 14 14 13 13 14 14 14 14 14 14
13 13 13 13 13 13 13 13 14 14 14 14 14 14 14 14 14 14 14 14 14 14 14 14 14 14 14 14 14 14 14 14 14 14 13 13 13 13 13 13 13 13 13
12 13 13 13 13 13 13 13 13 14 14 14 14 14 14 14 14 14 14 14 14 14 14 14 14 14 14 14 14 14 14 14 14 13 13 13 13 13 13 13 13 13 13
12 12 12 13 13 13 13 13 13 13 13 14 14 14 14 14 14 14 14 14 14 14 14 14 14 14 14 14 14 14 14 14 13 13 13 12 13 13 13 13 13 13 13
12 12 12 12 12 13 13 13 13 13 13 13 13 13 13 13 14 14 14 14 14 14 14 14 14 14 14 14 14 14 14 14 13 13 12 12 13 13 13 13 13 13 13
12 12 12 12 12 12 13 13 13 13 13 13 13 13 13 13 13 13 13 13 14 14 14 14 13 14 14 14 14 13 13 13 13 12 12 12 13 13 13 13 12 12 12
12 12 12 12 12 12 12 12 13 13 13 13 13 13 13 13 13 13 13 13 13 13 13 13 13 13 13 13 13 13 13 13 12 12 12 12 12 12 12 12 12 12 12
11 11 12 12 12 12 12 12 12 12 12 12 13 13 13 13 13 13 13 13 13 13 13 13 13 13 13 13 13 13 13 12 12 12 12 12 12 12 12 12 12 12 12
11 11 11 11 11 12 12 12 12 12 12 12 12 12 12 12 12 12 12 13 12 12 12 13 13 13 13 12 12 12 12 12 11 11 12 12 12 12 12 12 12 12 12
11 11 11 11 11 11 12 12 12 12 12 12 12 12 12 12 12 12 12 12 12 12 12 12 12 12 12 12 12 12 12 12 11 11 11 12 12 12 12 12 11 12 12
10 11 11 11 11 11 11 11 11 11 11 11 11 11 11 11 11 11 11 11 12 12 11 12 12 11 12 11 11 11 11 11 11 11 11 11 11 11 11 11 11 11 11
10 10 10 11 11 11 11 11 11 11 11 11 11 11 11 11 11 11 11 11 11 11 11 11 11 11 11 11 11 11 11 11 11 11 11 11 11 11 11 11 11 11 11
10 10 10 10 10 10 10 10 10 10 10 10 10 10 10 10 10 10 10 10 10 10 10 10 10 10 10 10 10 10 11 10 10 10 10 11 11 11 11 11 11 11 11
9 9 10 10 10 10 10 10 10 10 10 10 10 10 10 10 10 10 10 10 10 10 10 10 10 10 10 10 10 10 10 10 10 10 10 10 10 10 10 10 10 10 10
9 9 9 9 9 9 9 9 9 9 9 9 9 9 9 9 9 9 9 9 9 9 9 9 9 9 9 9 9 10 10 10 10 10 9 9 10 10 10 10 10 10 10
8 9 9 9 9 9 9 9 9 9 9 9 9 9 9 9 9 9 9 9 9 9 8 8 8 9 9 9 9 9 9 9 9 9 9 9 9 9 9 10 10 10 9
8 8 8 8 8 8 8 8 8 8 8 8 8 8 8 8 8 8 8 8 8 8 8 8 8 8 8 8 8 8 9 9 9 9 9 9 9 9 9 9 9 9 9
7 7 7 7 7 7 7 8 8 8 8 8 8 8 8 8 8 7 8 8 8 8 8 7 7 8 8 8 8 8 8 8 8 8 8 8 9 9 9 9 9 9 9
7 7 7 7 7 7 7 7 7 7 7 7 7 7 7 7 7 7 7 7 7 7 7 7 7 7 7 7 7 7 7 8 8 8 8 8 8 8 8 8 8 8 8
6 6 6 6 6 6 6 6 7 6 6 7 7 7 7 6 6 6 6 7 7 6 6 6 6 6 6 6 6 6 6 7 7 7 8 8 7 7 7 7 8 8 8
6 6 6 6 6 6 6 6 6 6 6 6 6 6 6 6 6 6 6 6 6 6 6 6 6 6 6 6 5 5 5 6 6 6 7 7 7 7 7 7 7 7 7
5 5 5 5 5 5 5 5 5 5 5 5 5 5 5 5 6 6 5 5 5 5 5 5 5 5 5 5 5 5 5 5 5 5 5 6 6 6 6 6 6 6 6
5 5 5 5 5 5 4 4 4 4 4 4 5 5 5 5 5 5 5 5 5 5 5 5 5 5 4 4 4 4 4 4 4 4 4 5 5 5 5 5 5 5 5
4 4 4 4 4 4 4 4 4 4 4 4 4 4 4 4 4 5 4 4 4 4 4 4 4 4 4 4 4 4 4 4 4 4 4 4 4 5 5 5 5 5 5
Wind_Speed
2 2 2 2 4 5 5 6 6 6 7 7 6 7 7 7 7 7 7 7 7 7 7 6 6 6 6 7 8 8 7 7 8 8 8 8 8 8 7 6 5 6 7
3 4 4 4 4 5 5 6 5 6 6 6 6 7 7 6 6 6 6 6 6 6 6 6 6 6 6 6 7 7 7 6 7 7 6 7 7 6 6 5 5 6 6
4 4 5 5 5 5 5 5 5 5 5 6 6 6 6 5 6 6 5 5 5 6 6 5 6 6 6 6 6 6 6 6 6 5 4 5 6 6 5 5 5 5 6
4 4 5 5 5 5 5 5 5 5 5 5 5 5 5 5 5 5 5 5 5 5 5 5 5 5 5 5 5 5 5 5 4 2 3 3 4 5 4 4 4 4 4
4 4 5 5 5 5 5 5 5 5 4 4 4 4 4 4 4 4 4 4 4 4 5 4 4 4 4 4 4 4 4 4 3 2 2 2 3 4 3 3 3 2 3
4 4 5 5 5 5 5 5 5 5 4 4 4 4 3 3 3 4 4 4 4 4 4 4 4 4 3 3 3 3 3 3 3 2 2 2 2 3 2 2 2 1 1
3 3 4 5 4 4 4 5 5 4 4 4 4 3 3 3 3 3 3 3 3 3 3 3 3 3 3 2 2 3 3 2 2 2 2 2 1 1 2 2 2 2 1
3 3 4 4 4 4 4 4 4 4 3 3 3 3 3 2 2 2 3 3 2 2 2 2 2 2 2 2 1 1 2 3 3 2 2 2 1 1 2 3 3 3 3
3 3 2 3 3 3 3 4 4 3 3 3 3 2 2 2 1 2 2 2 1 2 2 2 1 1 1 1 1 0 1 3 4 3 3 2 1 2 4 4 4 4 4
2 2 2 1 1 2 2 3 3 2 2 2 2 2 1 1 1 2 2 1 1 1 1 1 1 2 2 2 2 1 2 4 4 4 3 2 2 4 4 5 6 6 6
1 1 1 1 0 1 2 2 2 2 2 1 1 1 0 1 2 2 2 1 1 1 1 2 2 2 2 3 3 2 3 4 4 4 3 2 4 5 6 6 7 7 8
2 1 0 1 1 1 1 2 2 1 1 0 0 1 1 1 2 2 2 2 2 2 2 2 2 3 4 4 4 4 4 4 4 3 3 2 5 6 7 7 7 8 9
2 2 1 1 1 1 1 1 1 1 1 1 1 1 2 1 1 2 1 2 2 3 2 2 4 4 4 4 4 4 4 4 4 3 3 3 6 7 8 8 9 9 9
3 2 2 2 2 2 2 1 2 1 1 1 1 2 2 1 2 2 1 2 2 2 2 2 3 4 5 5 5 5 5 5 4 4 4 4 7 8 10 10 10 11 10
3 2 2 2 2 2 2 2 2 2 2 2 2 2 2 2 2 2 2 2 3 2 3 3 3 4 5 5 5 6 6 6 6 6 5 6 8 9 10 11 12 12 11
3 3 2 3 2 2 2 2 2 2 2 2 2 2 3 2 2 2 3 3 3 3 3 3 4 4 4 4 5 6 7 7 7 7 7 7 8 9 10 12 12 13 13
3 3 2 2 2 2 2 2 2 2 3 3 2 3 3 3 3 3 3 3 3 3 4 4 4 4 4 5 6 6 6 7 7 8 8 7 8 9 10 12 12 13 13
2 3 2 2 2 2 2 2 2 2 3 3 2 3 3 3 3 3 3 3 3 3 3 3 4 4 5 5 5 5 6 6 8 8 8 8 8 8 9 11 12 12 13
2 2 2 2 2 2 2 2 2 2 3 2 2 2 3 3 3 3 3 3 3 3 3 4 4 4 5 6 6 6 6 7 7 8 8 9 9 9 9 9 11 12 12
1 1 1 2 2 2 2 1 2 2 2 2 2 2 3 3 3 3 3 3 3 3 4 4 5 5 5 5 6 6 7 7 7 7 8 8 8 9 9 8 8 8 10
1 1 1 2 2 2 1 1 2 2 2 2 3 3 3 3 3 3 3 3 3 4 4 5 5 5 5 4 5 6 6 7 7 6 6 6 6 7 8 8 7 6 6
1 1 2 2 2 2 2 2 2 3 3 3 3 3 3 3 3 3 3 3 3 4 5 5 4 4 4 4 4 4 4 5 5 5 6 6 7 6 6 7 7 7 7
2 2 2 3 3 3 3 2 2 2 2 3 3 3 4 4 4 4 4 4 4 4 5 5 5 6 5 5 5 4 4 5 5 4 6 6 6 6 6 6 7 7 8
3 3 3 3 3 3 2 3 3 3 3 4 4 4 4 4 4 4 5 5 4 4 5 5 6 6 7 6 5 5 6 5 5 4 4 5 6 7 7 6 6 7 8
2 3 3 2 3 3 3 3 4 4 4 4 4 4 5 4 4 4 5 5 5 5 5 6 5 6 6 6 5 5 5 6 8 6 7 6 6 6 6 7 6 7 8
3 2 2 2 3 3 3 4 4 4 4 5 5 4 4 4 4 5 5 5 5 5 5 6 6 7 6 7 6 6 6 5 5 6 7 8 7 7 7 6 6 6 7
Wind_Direction
133 110 81 79 95 105 104 97 92 90 89 94 98 100 98 97 93 88 82 80 83 87 90 91 100 99 97 100 101 103 101 98 96 97 95 95 96 95 92 87 89 94 89
126 119 99 87 92 106 113 105 99 94 91 93 98 103 102 100 97 94 87 84 83 85 89 92 102 103 98 99 100 102 100 101 102 96 99 105 101 98 94 87 68 80 91
113 114 112 89 86 97 108 110 104 98 96 96 96 103 105 104 102 98 92 88 85 83 85 90 95 100 103 101 100 101 104 106 106 103 130 122 112 108 101 95 89 88 91
114 114 104 88 82 92 100 101 101 99 102 101 99 100 109 108 107 102 98 93 87 84 82 81 91 97 99 105 105 103 105 106 111 145 150 119 118 112 111 107 99 96 96
117 114 101 91 83 83 94 98 98 96 96 97 96 93 101 112 111 107 104 98 91 86 82 79 89 97 107 106 111 113 114 110 118 183 141 134 126 114 119 111 98 101 111
116 112 104 94 90 87 89 90 93 90 91 92 92 92 92 102 105 106 106 101 94 90 85 84 96 97 104 112 121 126 124 129 177 171 166 163 146 120 134 134 128 103 111
112 104 106 99 93 90 93 86 82 85 79 80 80 84 84 89 99 101 103 108 105 100 101 97 97 102 106 112 128 146 145 172 206 189 191 185 158 138 179 179 186 190 194
106 104 109 106 96 95 98 91 80 71 77 76 76 72 67 70 94 120 115 108 123 126 121 120 110 114 129 134 138 161 180 204 223 215 210 204 158 219 218 211 218 219 227
106 100 98 123 124 118 107 98 86 74 66 66 69 67 66 70 91 138 134 127 137 161 150 140 141 161 181 182 176 159 209 231 235 224 225 220 184 240 244 239 233 233 235
109 91 89 97 131 153 146 112 94 90 74 64 66 55 70 118 153 158 158 152 168 174 176 183 204 230 221 204 197 214 230 233 230 230 231 219 213 246 258 253 247 243 241
132 91 62 61 126 183 173 140 136 124 105 102 86 59 182 219 221 194 187 180 182 186 209 219 228 236 227 206 210 223 227 238 248 245 239 231 235 249 259 264 257 249 244
201 219 315 331 320 231 193 189 200 202 174 221 317 286 274 269 247 232 187 185 184 191 207 214 229 224 230 225 216 216 234 249 249 246 248 244 249 254 259 263 264 258 250
216 234 274 293 299 279 238 239 239 237 239 254 277 303 291 281 259 230 212 188 194 198 212 209 226 232 239 238 238 236 243 250 248 248 253 254 259 263 267 269 264 263 259
223 236 260 274 280 278 257 246 250 262 268 275 270 290 286 296 290 262 244 249 237 238 249 247 251 250 249 244 241 241 242 244 249 254 256 252 260 266 268 268 268 265 262
237 246 258 262 261 264 253 251 256 258 264 265 262 270 275 276 276 270 254 246 257 262 257 260 258 257 254 252 247 245 246 249 246 247 249 244 253 261 267 268 265 262 259
240 249 261 258 266 261 253 252 257 257 257 258 260 268 269 266 269 272 262 254 257 264 262 261 258 261 260 256 253 250 249 250 248 245 250 247 245 255 262 268 267 263 258
248 251 258 262 268 261 260 259 258 258 256 257 263 264 270 267 265 272 259 251 259 264 260 260 260 262 264 259 257 256 256 253 252 249 251 252 248 249 258 263 266 265 261
260 258 253 261 254 251 257 267 261 257 256 259 264 272 278 278 274 267 258 248 252 258 255 254 261 262 264 264 263 262 260 256 254 254 253 251 251 252 253 258 262 264 263
266 268 254 252 254 254 254 257 261 256 255 262 264 271 279 277 273 269 260 262 248 249 248 251 260 263 266 270 270 267 262 256 255 254 254 253 251 250 252 253 256 261 263
272 281 286 266 274 268 259 260 263 256 262 266 263 269 279 277 269 265 253 263 261 254 250 249 256 265 266 270 274 272 265 259 254 253 255 256 251 249 249 253 252 255 260
297 305 308 311 296 285 272 270 269 270 275 274 273 272 275 277 273 264 259 257 262 257 257 255 258 257 261 267 275 278 271 256 251 254 255 258 258 257 254 252 249 253 258
311 306 299 297 304 292 273 266 267 270 271 271 277 269 266 270 273 263 257 255 257 262 259 253 254 256 255 246 256 271 276 265 247 253 252 255 258 258 260 262 257 257 261
307 301 294 291 290 296 299 280 270 257 267 268 279 280 270 266 268 267 258 257 254 249 250 252 246 248 248 247 244 249 262 265 292 260 255 253 254 257 260 262 265 265 264
297 296 290 291 293 294 291 275 260 259 268 271 276 276 280 271 267 265 256 257 253 247 248 252 253 251 242 245 251 258 262 271 268 275 257 254 259 262 263 264 266 265 263
305 303 301 297 297 296 286 271 267 267 273 276 274 275 280 278 269 264 257 256 254 250 250 250 253 252 248 248 251 259 260 260 254 257 269 271 270 267 268 269 270 269 265
324 316 311 302 301 301 288 277 272 275 279 277 276 277 279 280 276 267 261 259 255 253 251 250 249 249 252 252 252 249 252 255 253 254 264 270 273 274 271 269 267 267 267
Height
1515 1516 1516 1517 1518 1519 1519 1519 1520 1520 1520 1520 1521 1521 1521 1521 1522 1522 1522 1522 1522 1522 1522 1522 1523 1523 1523 1523 1523 1523 1522 1522 1523 1523 1523 1523 1524 1524 1524 1524 1525 1525 1525
1515 1515 1516 1517 1518 1518 1519 1519 1520 1520 1520 1520 1521 1521 1521 1521 1522 1522 1522 1522 1522 1522 1522 1522 1522 1522 1523 1522 1523 1523 1523 1523 1523 1523 1523 1524 1524 1524 1524 1524 1525 1525 1525
1514 1515 1516 1516 1517 1518 1518 1519 1519 1520 1520 1520 1520 1520 1521 1521 1521 1521 1522 1522 1522 1522 1522 1522 1522 1522 1522 1522 1522 1522 1523 1523 1523 1523 1524 1524 1524 1524 1524 1524 1524 1525 1525
1514 1515 1515 1516 1517 1517 1518 1518 1519 1519 1519 1519 1520 1520 1520 1520 1521 1521 1521 1521 1521 1521 1521 1521 1521 1521 1522 1522 1522 1522 1522 1522 1523 1523 1524 1524 1524 1524 1524 1524 1524 1524 1524
1514 1515 1515 1515 1516 1517 1517 1518 1518 1518 1519 1519 1519 1519 1519 1520 1520 1520 1520 1520 1521 1521 1521 1521 1521 1521 1521 1521 1521 1521 1521 1522 1522 1523 1523 1523 1523 1523 1523 1523 1524 1524 1524
1514 1515 1515 1515 1515 1516 1516 1517 1517 1517 1518 1518 1518 1518 1519 1519 1519 1519 1519 1519 1520 1520 1520 1520 1520 1520 1520 1520 1520 1520 1521 1521 1522 1522 1522 1522 1522 1522 1522 1522 1523 1523 1523
1513 1514 1514 1514 1515 1515 1515 1516 1516 1516 1516 1517 1517 1517 1518 1518 1518 1518 1518 1518 1518 1519 1519 1519 1519 1519 1520 1520 1520 1520 1520 1520 1521 1521 1521 1521 1521 1521 1521 1521 1521 1521 1521
1512 1513 1513 1513 1514 1514 1514 1514 1515 1515 1515 1515 1516 1516 1516 1516 1516 1516 1517 1517 1517 1517 1518 1518 1518 1518 1518 1519 1518 1518 1519 1519 1519 1520 1520 1520 1519 1520 1520 1520 1520 1520 1520
1512 1512 1512 1513 1513 1513 1513 1513 1514 1514 1514 1514 1514 1514 1515 1514 1515 1515 1515 1515 1516 1516 1516 1516 1517 1517 1517 1517 1517 1517 1517 1517 1518 1518 1518 1518 1518 1518 1518 1518 1518 1518 1518
1510 1511 1511 1511 1512 1512 1512 1512 1512 1512 1512 1512 1513 1513 1513 1513 1513 1513 1513 1513 1513 1514 1514 1514 1515 1515 1515 1515 1515 1515 1515 1516 1516 1516 1516 1516 1516 1516 1516 1516 1516 1516 1516
1509 1509 1509 1510 1510 1510 1511 1511 1511 1511 1510 1511 1511 1511 1511 1511 1511 1511 1511 1511 1511 1511 1512 1512 1512 1513 1513 1513 1513 1513 1513 1514 1514 1514 1513 1513 1514 1514 1514 1514 1514 1514 1514
1506 1507 1508 1508 1508 1508 1508 1508 1509 1509 1509 1509 1508 1508 1508 1508 1508 1508 1508 1509 1509 1509 1509 1510 1510 1510 1511 1511 1511 1511 1511 1511 1511 1511 1511 1511 1511 1511 1512 1511 1511 1511 1511
1504 1505 1505 1506 1506 1506 1506 1506 1506 1506 1507 1506 1506 1506 1506 1506 1506 1506 1506 1506 1506 1507 1507 1507 1507 1508 1508 1508 1508 1508 1508 1508 1508 1508 1508 1508 1508 1508 1509 1509 1509 1508 1508
1502 1502 1503 1503 1504 1504 1504 1504 1504 1504 1504 1504 1504 1504 1504 1503 1503 1503 1503 1503 1503 1504 1504 1504 1504 1505 1505 1505 1505 1505 1505 1505 1505 1505 1505 1505 1505 1505 1505 1505 1505 1505 1505
1500 1500 1501 1501 1501 1501 1501 1501 1501 1501 1501 1501 1501 1501 1501 1501 1501 1501 1500 1500 1501 1501 1501 1501 1501 1501 1501 1501 1501 1501 1501 1501 1501 1501 1501 1501 1501 1501 1502 1502 1502 1502 1502
1497 1498 1498 1498 1498 1498 1499 1499 1499 1499 1498 1498 1498 1498 1498 1498 1498 1498 1498 1497 1498 1498 1498 1498 1498 1498 1498 1498 1498 1498 1498 1498 1497 1497 1497 1497 1497 1497 1497 1497 1497 1497 1497
1494 1495 1495 1495 1495 1495 1496 1496 1496 1496 1495 1495 1495 1495 1495 1494 1494 1494 1494 1494 1494 1494 1494 1494 1494 1494 1494 1494 1494 1494 1494 1494 1494 1493 1493 1493 1493 1493 1493 1493 1493 1493 1493
1491 1492 1492 1492 1492 1492 1492 1492 1492 1492 1492 1492 1492 1491 1491 1491 1491 1491 1491 1490 1490 1490 1491 1491 1491 1490 1490 1490 1490 1489 1489 1489 1489 1489 1489 1489 1489 1488 1488 1488 1488 1488 1487
1488 1488 1489 1489 1489 1489 1489 1489 1489 1489 1489 1488 1488 1488 1488 1487 1487 1487 1487 1487 1486 1486 1487 1487 1487 1486 1486 1486 1486 1485 1485 1485 1485 1485 1484 1484 1484 1483 1483 1483 1483 1482 1482
1485 1485 1485 1486 1486 1485 1485 1485 1485 1485 1485 1485 1485 1484 1484 1484 1484 1483 1483 1483 1483 1483 1483 1483 1483 1482 1482 1482 1482 1481 1480 1480 1480 1480 1480 1479 1479 1479 1478 1478 1477 1477 1477
1482 1482 1482 1482 1482 1482 1482 1482 1482 1481 1481 1481 1481 1481 1480 1480 1480 1479 1479 1479 1479 1479 1478 1478 1478 1478 1478 1478 1478 1477 1476 1475 1475 1475 1474 1474 1474 1474 1473 1472 1472 1472 1471
1479 1479 1479 1479 1479 1479 1478 1478 1478 1478 1478 1477 1477 1477 1476 1476 1475 1475 1475 1475 1475 1475 1474 1474 1474 1473 1473 1474 1474 1473 1472 1472 1470 1469 1469 1469 1469 1469 1468 1468 1467 1466 1466
1476 1476 1476 1475 1475 1475 1474 1474 1474 1474 1474 1473 1473 1472 1472 1472 1471 1471 1471 1471 1471 1471 1470 1470 1469 1469 1469 1470 1470 1471 1470 1467 1465 1464 1463 1464 1464 1464 1463 1463 1461 1461 1461
1473 1473 1473 1472 1472 1472 1471 1471 1470 1470 1470 1469 1469 1468 1468 1468 1467 1467 1467 1466 1466 1466 1466 1466 1465 1465 1465 1465 1465 1466 1467 1465 1464 1460 1459 1459 1459 1459 1458 1457 1457 1456 1455
1470 1469 1469 1469 1469 1469 1468 1468 1467 1466 1466 1466 1465 1465 1464 1464 1463 1463 1462 1462 1462 1462 1462 1461 1461 1461 1461 1461 1460 1461 1461 1461 1460 1458 1455 1453 1453 1453 1453 1452 1451 1451 1450
1467 1466 1466 1466 1465 1465 1465 1464 1464 1463 1463 1462 1462 1461 1460 1460 1459 1459 1458 1458 1458 1457 1457 1457 1457 1457 1457 1456 1456 1456 1456 1456 1455 1455 1452 1449 1448 1447 1448 1447 1446 1445 1444